Regional Weather Roundup
Issued by NWS Newport/Morehead, NC

Current Version | Previous Version | Graphics & Text | Print | Product List | Glossary Off
Versions: 1 2 3 4 5 6 7 8 9 10 11 12 13 14 15 16 17 18 19 20 21 22 23 24 25 26 27 28 29 30 31 32 33 34 35 36 37 38 39 40 41 42 43 44 45 46 47 48 49 50

000
ASUS42 KMHX 312025
RWRMHX
WEATHER ROUNDUP FOR EASTERN NORTH CAROLINA
NATIONAL WEATHER SERVICE NEWPORT/MOREHEAD CITY NC
400 PM EDT MON AUG 31 2015

NOTE: "FAIR" INDICATES FEW OR NO CLOUDS BELOW 12,000 FEET
WITH NO SIGNIFICANT WEATHER AND/OR OBSTRUCTIONS TO VISIBILITY

NCZ015>017-031-032-045>047-102-103-312100-
NORTH COAST

CITY           SKY/WX    TMP DP  RH WIND       PRES   REMARKS
EDENTON        CLOUDY    75  71  88 SE8       30.10F
ELIZABETH CITY LGT RAIN  74  72  93 SE7       30.12F FOG
KITTY HAWK     RAIN      73  67  82 CALM      30.11F
MANTEO         RAIN      72  71  96 E3        30.13S

$$

NCZ045>047-081-094-103-104-312100-
CENTRAL COAST

CITY           SKY/WX    TMP DP  RH WIND       PRES   REMARKS
FRISCO         LGT RAIN  76  73  91 S12       30.11F
SWANQUARTER    NOT AVBL

$$

NCZ095-097-098-100-101-312100-
SOUTHERN COAST

CITY           SKY/WX    TMP DP  RH WIND       PRES   REMARKS
BEAUFORT       LGT RAIN  76  76 100 SE7       30.07F FOG
CEDAR ISLAND   NOT AVBL
JACKSONVILLE   CLOUDY    79  74  84 SE8       30.05F
PINEY ISLAND   CLOUDY   N/A N/A N/A SE10      30.07F
WILMINGTON     CLOUDY    80  74  81 NE10      30.03F


$$

NCZ011>013-027>030-043-044-078>080-089-090>093-098-312100-
COASTAL PLAIN

CITY           SKY/WX    TMP DP  RH WIND       PRES   REMARKS
AHOSKIE        PTSUNNY   74  70  85 E6        30.09F
CLINTON        DRIZZLE   79  75  88 CALM      30.05F
ELIZABETHTOWN  PTSUNNY   82  73  75 SE5       30.04F
GOLDSBORO      PTSUNNY   80  73  77 SE7       30.05F
GREENVILLE     CLOUDY    77  73  88 SE5       30.09F
HAVELOCK       RAIN      78  75  90 SE12      30.08F
KENANSVILLE      N/A     76  74  94 SE3       30.06F
KINSTON        CLOUDY    81  73  78 E7        30.07F
NEW BERN       CLOUDY    80  73  79 SE8       30.08F
RICHLANDS      CLOUDY    81  70  69 E7        30.05F
ROCKY MOUNT    LGT RAIN  75  72  90 VRB5      30.07F FOG
WASHINGTON     CLOUDY    77  73  87 E6        30.07F
WHITEVILLE     CLOUDY    80  73  80 CALM      30.03F

$$

AMZ130-135-150-152-154-156-158-170-250-252-270-ANZ085-086-088-633-658-670-312100-
MARINE OBSERVATIONS

STATION/POSITION TIME  TEMP    WIND        PRES    WAVE   SWELL
                       AIR SEA DIR/SP/G            HT/PER HT/PER
                 (UTC) (F)     (DEG/KT/KT) (MB)    (FT/S) (FT/S)
CHESAPEAKE LIGHT 2000   77     260/  2/  3 1020.3
64 E VA BEACH    1950   77 78  190/  6/  8 1019.2    3/ 9   3/ 9
DUCK             2000   73 79  150/  6/  7 1019.2
2 E DUCK         1911      79                N/A     2/ 9
OREGON INLET     2000   75 80  190/  4/  6 1019.7
13E OREGON INLT  2000      79                N/A     3/ 8   2/11
HATTERAS CG      2000   76 80  140/  8/ 13 1018.8
DIAMOND BUOY     1950   78 84  160/  8/ 10 1019.7    3/10   3/10
CAPE LOOKOUT     2000   77     130/  7/  8 1018.2
BEAUFORT LAB     2000   76 79  130/  8/ 11 1017.4
30 SE NEW RVR IN 1908   79 81  120/ 12/ 16 1018.6
30 SE NEW RVR IN 1925      81                N/A     5/ 8
27 SE WRIGHTSVLE 2000   74 81   70/  8/ 10   N/A
5 SE WRIGHTSVLE  NOT AVBL
225 S CAPE HAT   1950   84 84  180/ 14/ 16 1018.5    4/ 6   2/ 8
41 SE CHARLESTON 1950   81 83  200/ 14/ 16 1016.2    5/ 9   3/ 9

$$



USA.gov is the U.S. government's official web portal to all federal, state and local government web resources and services.